Theta_e
286 288 286 284 283 283 282 284 280 282 283 284 277 278 279 281 281 281 281 283 285 286 287 288 288 288 288 288 287 286 286 286 286 285 284 284 284 284 281 282 282 281 280 280
277 281 281 279 282 281 282 282 282 282 280 277 278 280 279 280 280 280 281 284 286 285 288 286 286 286 286 287 286 286 285 285 286 285 283 282 284 283 280 280 280 280 280 279
273 278 277 272 277 279 280 282 278 275 274 275 276 277 277 279 281 279 280 282 285 283 284 284 285 286 284 285 286 284 284 284 284 283 283 284 281 280 280 279 280 279 279 279
273 272 266 275 279 279 277 277 277 276 274 275 277 277 279 282 279 279 281 283 283 282 281 282 283 283 284 285 284 284 283 283 283 282 281 281 278 279 278 278 278 278 279 278
267 262 270 275 275 274 275 273 276 276 278 278 278 277 275 279 280 280 280 283 281 280 281 281 280 282 282 280 281 283 283 283 282 281 280 279 277 277 278 278 278 279 279 278
262 263 257 271 275 278 278 267 273 274 275 275 275 269 272 278 280 280 282 280 278 278 278 278 279 281 278 277 279 278 280 281 281 279 277 277 276 274 275 278 278 278 277 278
261 257 263 271 274 276 262 265 271 274 275 275 273 274 277 279 278 278 279 277 277 276 275 276 279 277 275 276 276 277 277 277 280 281 278 277 277 273 274 275 274 273 274 275
253 254 257 275 273 268 271 274 274 275 278 277 277 278 278 277 277 277 275 275 276 274 274 275 276 274 274 273 275 275 275 275 277 278 279 277 275 274 273 274 274 271 271 270
264 264 275 277 275 279 277 274 276 277 279 278 277 277 277 275 275 275 275 274 275 272 272 274 273 272 271 272 272 271 272 272 273 274 277 277 275 274 272 273 272 269 270 269
271 274 275 276 278 277 278 278 278 278 278 277 276 275 274 274 274 273 273 272 272 271 270 270 272 271 270 270 270 268 268 268 269 270 273 277 275 275 273 272 272 272 270 270
271 275 276 277 278 279 279 278 276 276 275 274 273 272 272 272 271 271 271 271 271 270 269 269 270 269 268 268 266 265 265 266 266 268 269 273 275 274 273 274 275 273 273 273
269 276 275 276 279 277 276 275 273 272 271 272 272 271 271 269 270 269 269 269 268 267 266 266 266 265 265 265 264 263 262 263 264 266 267 270 273 273 277 278 278 279 279 275
275 278 278 278 275 272 271 270 271 270 269 268 268 268 267 267 267 267 266 265 264 263 263 263 262 262 262 262 261 261 260 261 262 264 265 267 271 270 270 273 279 280 280 280
274 273 275 274 271 269 270 268 267 267 266 266 266 265 265 263 263 262 261 262 261 260 260 259 259 258 260 260 260 259 259 260 261 262 264 266 269 270 270 270 269 273 279 279
267 268 268 267 267 266 266 265 263 263 264 263 263 262 261 260 259 259 259 259 259 258 258 258 258 258 259 259 259 259 259 260 261 262 264 266 267 270 270 270 270 271 273 276
264 264 264 262 263 263 261 261 260 260 261 261 259 259 259 258 257 257 258 259 257 257 258 258 258 259 259 259 259 259 259 260 261 262 263 264 266 269 268 268 269 270 270 272
259 260 257 257 258 259 258 259 260 259 259 257 257 257 256 256 257 258 258 258 257 256 257 257 257 259 259 259 259 259 260 260 261 261 263 265 267 267 268 267 268 269 270 273
258 258 258 257 257 257 257 257 257 256 255 256 256 256 256 256 256 256 255 256 256 256 257 258 259 259 260 261 261 261 261 261 261 261 263 266 267 267 267 267 268 269 270 273
255 255 256 257 257 256 255 255 255 255 255 255 255 255 257 257 256 255 255 255 255 255 257 259 262 261 259 260 263 263 263 264 265 266 266 267 267 267 267 267 268 269 270 271
253 254 254 254 254 253 253 254 253 253 253 254 256 256 256 256 256 255 255 255 256 257 258 259 260 260 260 261 263 262 262 263 263 264 264 264 264 265 266 266 267 268 264 263
250 251 251 252 252 252 252 252 252 251 253 255 256 256 256 256 256 255 255 254 256 257 258 259 259 260 260 260 261 260 261 261 261 262 263 263 263 263 264 263 262 261 260 260
248 248 249 250 250 250 250 250 250 253 255 256 256 257 256 255 255 255 256 255 256 257 258 258 260 260 259 260 259 259 259 260 260 261 261 262 262 261 260 260 259 259 259 259
246 246 249 248 248 249 250 250 252 254 255 256 256 256 255 255 255 254 253 256 257 258 257 258 260 260 259 258 258 258 258 258 258 259 259 259 259 259 258 258 258 258 258 258
242 244 245 246 247 245 247 251 254 256 256 257 257 257 255 254 255 256 257 257 257 257 256 258 259 260 257 256 256 256 256 257 257 258 258 258 258 258 258 258 257 257 257 257
244 244 241 245 246 251 254 256 256 256 256 257 257 257 257 257 255 256 256 256 257 256 255 257 259 258 255 254 254 254 255 255 256 256 256 256 256 256 256 256 256 256 256 256
244 247 251 253 254 255 256 256 255 256 256 255 256 257 257 257 257 257 256 256 255 255 255 255 255 255 255 255 254 254 254 254 254 254 255 255 255 255 255 255 255 254 254 254
251 254 254 254 254 255 255 256 255 255 256 256 255 257 257 256 256 256 256 255 255 255 254 254 255 255 254 254 254 254 254 255 255 254 254 254 254 254 254 254 254 254 254 254
Wind_Speed
18 10 7 8 13 18 18 17 13 19 20 8 10 14 14 12 16 14 17 18 17 17 15 16 16 16 16 14 14 14 13 16 15 9 8 10 11 12 11 13 15 14 13 15
13 19 13 19 18 19 21 20 16 19 11 4 3 7 9 8 10 15 15 15 14 16 15 18 19 17 17 16 17 17 15 14 15 13 7 9 11 10 11 13 13 13 16 16
18 12 8 13 22 20 18 19 2 10 3 1 4 8 11 11 7 12 13 15 12 15 15 15 16 15 16 15 14 15 15 14 14 16 15 11 8 7 11 14 13 15 16 16
13 9 20 8 6 8 9 6 6 5 3 6 6 5 11 5 5 9 11 11 11 11 12 13 15 14 14 15 15 13 13 12 14 16 15 12 7 7 6 7 13 14 15 16
5 8 9 9 4 3 1 5 5 4 6 7 8 6 3 3 6 8 12 8 9 10 12 13 14 15 14 16 16 15 15 16 17 15 16 13 7 6 6 6 9 12 11 14
2 5 7 2 2 2 3 5 8 7 8 8 4 5 9 8 5 9 11 7 10 10 7 8 13 12 13 15 15 15 15 17 15 13 13 14 8 5 4 6 8 7 8 10
6 4 9 5 6 1 7 7 6 5 8 8 6 7 10 11 7 7 8 11 10 9 10 11 9 9 15 14 15 14 14 17 18 13 12 10 10 2 4 5 3 3 4 5
3 4 9 4 4 5 7 4 4 4 11 11 9 9 10 11 12 9 12 14 14 12 13 14 11 10 13 17 15 13 15 17 16 17 11 7 8 6 4 6 8 7 7 4
9 8 4 4 8 12 4 7 8 8 11 8 9 12 12 11 14 13 14 14 13 10 15 17 13 8 13 15 13 15 17 17 17 17 16 10 10 9 6 7 6 7 8 8
15 14 17 18 18 6 9 14 14 9 7 5 11 11 12 12 13 15 15 15 13 14 16 19 16 14 14 14 13 14 17 18 17 16 16 13 9 9 9 8 9 9 10 10
13 18 14 16 16 16 16 11 4 4 3 4 5 12 11 13 16 15 16 17 13 15 16 21 20 19 17 16 14 16 17 17 16 14 15 15 11 10 10 11 12 10 10 9
14 19 15 17 17 2 1 2 3 4 7 6 8 12 12 16 15 15 17 17 17 19 19 21 21 21 18 16 15 17 18 15 13 12 12 12 12 10 20 24 23 26 22 15
19 18 17 14 4 5 2 4 5 6 7 12 15 11 12 16 17 18 18 19 20 21 21 20 21 23 19 18 17 18 18 18 14 14 12 12 12 10 10 9 26 25 27 24
2 3 11 2 1 6 6 7 7 8 8 8 12 12 11 15 20 18 18 18 19 21 21 21 22 23 19 19 18 19 19 23 15 13 13 13 13 10 9 8 8 9 22 20
5 5 4 5 3 5 6 8 12 12 11 11 10 13 13 16 18 20 20 20 20 21 20 20 20 21 19 18 19 19 17 14 13 13 12 14 13 11 9 9 9 8 6 14
4 3 2 3 6 5 7 6 9 13 13 14 15 15 15 16 18 19 19 19 19 19 21 20 20 21 19 19 19 16 16 21 19 13 13 13 12 11 7 8 8 8 8 9
2 1 4 2 7 10 8 8 10 12 14 14 16 17 17 17 17 16 17 17 18 20 20 20 20 19 18 18 18 14 13 13 18 14 12 12 12 9 8 8 8 8 8 9
2 2 4 6 9 10 10 9 11 12 12 15 15 16 16 16 17 17 17 17 17 17 16 16 16 17 17 16 15 13 13 13 12 12 11 11 9 7 6 7 7 7 6 7
2 5 7 8 9 10 11 12 12 12 12 13 14 15 15 15 15 15 16 15 15 16 16 20 20 19 15 16 16 11 11 11 10 10 9 6 4 4 5 6 6 5 6 7
5 4 6 8 8 8 12 11 12 12 12 12 13 14 14 14 14 14 14 14 13 12 19 20 18 14 14 15 16 9 9 7 5 3 2 2 1 2 2 3 4 6 8 8
6 7 8 9 9 9 10 10 10 11 12 11 11 12 13 14 13 12 13 11 15 17 19 19 15 10 10 12 10 9 8 7 7 6 5 5 5 5 6 8 9 8 8 9
5 6 8 8 8 10 9 8 9 11 10 10 10 9 10 12 12 11 9 9 12 20 13 11 11 15 12 15 9 9 9 9 8 7 7 7 7 8 8 8 8 8 8 8
6 5 8 8 8 9 9 8 9 7 9 8 8 8 8 8 7 8 12 13 11 16 11 10 18 19 17 10 9 10 10 10 9 8 8 8 7 7 7 8 8 8 8 8
4 6 6 6 6 5 6 6 5 7 6 6 5 5 6 6 6 2 7 12 15 15 11 13 15 18 15 9 10 10 10 10 9 8 8 10 8 7 8 7 8 7 8 10
6 6 4 5 4 4 5 6 6 5 5 4 4 4 5 3 2 7 7 8 12 11 9 14 17 16 9 9 9 9 9 9 9 8 9 9 8 8 8 8 8 8 8 8
4 3 4 4 5 5 5 4 4 4 4 4 3 4 4 4 4 5 6 8 7 10 8 8 9 9 9 9 9 9 8 8 8 8 8 8 9 8 8 8 8 7 7 6
4 6 5 5 4 5 5 5 4 4 4 2 3 4 5 5 5 6 7 7 7 7 7 8 8 10 9 9 9 9 8 8 12 8 8 8 7 7 7 6 6 5 5 5
Wind_Direction
270 291 312 301 291 286 264 267 265 289 286 344 17 354 354 2 0 2 352 348 352 350 342 344 349 347 349 344 344 338 339 340 323 278 251 234 222 211 200 202 197 198 200 198
297 293 292 281 269 259 266 279 265 262 270 34 9 337 335 339 350 344 343 338 342 342 343 339 340 339 341 341 339 334 342 343 336 323 287 255 241 218 196 201 198 194 198 194
271 287 301 278 251 251 256 261 249 258 110 192 293 321 327 325 321 340 331 318 330 333 334 331 329 331 331 329 330 332 333 333 339 337 327 297 252 220 208 204 193 200 200 194
275 308 269 255 61 72 92 84 93 97 195 217 245 277 289 182 322 317 317 312 317 321 322 317 321 323 325 325 326 327 326 325 335 335 323 305 274 239 237 212 204 200 201 199
228 216 295 297 36 74 194 177 173 204 253 252 269 276 216 332 297 297 301 298 310 311 308 316 315 320 327 326 324 325 325 325 329 330 319 307 265 256 236 226 222 220 209 198
87 220 227 191 255 265 113 259 218 200 235 227 249 309 305 310 297 293 293 292 296 292 276 284 296 312 321 315 316 318 325 321 307 308 303 293 275 250 234 224 230 222 213 207
234 240 287 236 256 98 90 242 221 198 223 223 212 213 276 300 284 280 287 298 295 296 287 289 281 310 304 303 303 310 315 311 303 302 296 295 289 249 234 216 176 188 195 207
76 33 294 211 351 148 222 269 225 263 253 224 240 260 264 278 290 282 290 293 293 295 295 296 297 300 292 291 301 305 299 297 306 309 299 283 258 258 227 217 195 181 170 176
185 215 245 228 237 279 211 229 261 248 246 231 259 269 271 278 283 286 286 284 287 283 286 288 286 274 278 286 300 300 301 302 304 302 301 270 255 242 225 210 216 192 190 198
268 260 255 264 272 257 278 270 278 258 244 236 254 269 281 286 286 290 288 283 286 285 281 285 288 288 280 297 303 297 296 296 297 294 293 278 246 238 226 217 211 211 199 202
250 261 269 265 265 265 267 279 276 288 258 277 290 282 284 283 284 285 287 291 290 282 283 285 292 291 297 300 304 295 291 288 286 285 281 279 249 236 232 233 220 221 209 202
249 260 261 271 277 15 288 310 28 336 316 296 281 281 286 282 286 290 290 293 294 291 289 291 294 293 296 298 299 291 286 284 281 282 281 280 268 255 244 242 241 239 233 200
248 259 270 272 106 56 20 348 327 312 293 293 294 295 295 288 290 292 293 294 293 293 294 295 294 292 297 295 288 280 278 283 282 275 271 272 271 245 254 247 247 241 239 226
327 342 272 111 78 353 342 326 310 289 281 275 289 300 297 297 299 297 295 297 296 293 292 292 289 286 290 287 281 277 275 276 273 272 269 267 266 250 236 237 240 235 234 230
54 31 356 341 350 342 341 339 323 315 314 309 306 299 304 299 298 300 301 298 293 289 287 286 286 290 289 285 281 278 277 272 272 271 270 271 277 258 225 228 227 230 221 227
340 324 9 340 321 335 336 318 299 306 316 308 308 308 307 300 296 296 296 297 299 300 298 296 293 289 290 285 280 277 273 269 262 266 265 259 259 247 223 220 222 226 208 213
34 335 344 324 330 322 316 305 295 296 303 303 303 307 306 304 300 305 310 309 305 300 300 296 294 293 291 287 283 278 276 273 263 261 259 256 257 224 215 211 214 216 216 204
60 304 284 277 295 303 302 299 296 294 297 300 301 303 304 308 310 312 308 307 305 302 300 297 296 294 293 293 288 282 274 264 259 255 259 254 236 215 209 212 211 209 202 196
330 304 305 300 303 299 296 297 295 295 298 298 301 301 306 303 307 305 307 311 311 314 322 317 308 313 304 302 302 298 296 286 271 257 244 221 209 197 204 204 202 182 175 176
309 299 290 286 285 279 287 286 288 291 291 292 296 304 305 308 312 312 312 311 311 320 321 319 321 318 321 319 320 313 312 318 327 349 11 58 93 112 104 119 132 104 88 94
292 291 292 293 290 281 270 279 285 287 291 293 300 301 307 311 314 318 320 325 329 327 321 326 327 327 330 331 338 338 344 353 7 14 29 44 56 60 62 64 78 85 90 89
273 275 283 282 284 288 277 271 270 276 284 295 295 302 314 315 323 324 323 317 325 330 334 331 335 354 350 350 350 356 2 8 13 20 31 39 49 57 61 64 72 75 79 84
277 273 289 285 278 279 288 277 270 269 288 291 301 316 317 307 309 331 336 336 336 339 342 340 350 5 4 5 6 7 7 12 20 26 30 34 41 52 63 65 67 73 81 86
271 276 266 263 274 279 283 280 285 293 287 294 299 310 309 321 328 318 320 320 334 345 345 352 2 10 14 10 11 14 16 15 18 23 32 43 44 48 51 55 68 73 79 81
270 273 267 290 292 280 294 310 310 311 314 317 315 324 315 311 294 315 324 328 338 349 352 355 4 10 14 14 16 21 21 22 24 30 34 37 41 48 52 58 63 66 69 73
298 290 300 309 322 325 322 318 319 321 326 340 334 333 328 330 335 337 332 340 346 352 358 358 4 6 10 16 21 24 26 26 33 38 43 47 50 53 56 59 61 64 70 74
327 355 347 346 346 336 331 339 339 337 334 353 327 345 347 347 350 353 351 352 355 359 2 1 7 12 13 17 21 26 27 31 34 33 35 40 43 46 51 56 60 63 64 67